| time (UTC) | temp C | wind direction | speed KPH | gust KPH | rain 1hr cm | rain 24hr cm | rain mn cm | humidity % | barometer mb |
| 20260507142641 | 19 | 304 | 12.9 | 19.3 | 0.00 | 0.15 | 0.15 | 86 | 1010.7 |
| 20260507142135 | 19 | 298 | 12.9 | 19.3 | 0.00 | 0.15 | 0.15 | 86 | 1010.8 |
| 20260507141017 | 19 | 311 | 12.9 | 16.1 | 0.00 | 0.15 | 0.15 | 86 | 1011.0 |
| 20260507140514 | 19 | 307 | 12.9 | 16.1 | 0.00 | 0.15 | 0.15 | 86 | 1011.0 |
| 20260507140019 | 19 | 316 | 12.9 | 16.1 | 0.00 | 0.15 | 0.15 | 85 | 1011.1 |
| 20260507135509 | 20 | 303 | 11.3 | 16.1 | 0.00 | 0.15 | 0.15 | 85 | 1011.1 |
| 20260507135006 | 20 | 319 | 11.3 | 17.7 | 0.00 | 0.15 | 0.15 | 85 | 1011.3 |
| 20260507134503 | 20 | 306 | 11.3 | 17.7 | 0.00 | 0.15 | 0.15 | 85 | 1011.3 |
| 20260507134001 | 20 | 290 | 12.9 | 19.3 | 0.00 | 0.15 | 0.15 | 85 | 1011.4 |
| 20260507133450 | 20 | 276 | 14.5 | 19.3 | 0.00 | 0.15 | 0.15 | 84 | 1011.6 |
| 20260507132942 | 20 | 303 | 14.5 | 19.3 | 0.00 | 0.15 | 0.15 | 84 | 1011.6 |
| 20260507132438 | 20 | 311 | 12.9 | 19.3 | 0.00 | 0.15 | 0.15 | 83 | 1011.6 |
| 20260507131926 | 20 | 292 | 12.9 | 16.1 | 0.00 | 0.15 | 0.15 | 83 | 1011.7 |
| 20260507131421 | 20 | 302 | 12.9 | 16.1 | 0.00 | 0.15 | 0.15 | 83 | 1011.8 |
| 20260507130931 | 20 | 290 | 12.9 | 16.1 | 0.00 | 0.15 | 0.15 | 83 | 1011.9 |
| 20260507130432 | 20 | 312 | 12.9 | 16.1 | 0.00 | 0.15 | 0.15 | 83 | 1011.9 |
| 20260507125918 | 20 | 322 | 11.3 | 16.1 | 0.00 | 0.15 | 0.15 | 83 | 1012.1 |
| 20260507125414 | 20 | 303 | 9.7 | 14.5 | 0.00 | 0.15 | 0.15 | 83 | 1012.1 |
| 20260507124911 | 20 | 306 | 9.7 | 14.5 | 0.00 | 0.15 | 0.15 | 83 | 1012.0 |
| 20260507124403 | 20 | 294 | 9.7 | 14.5 | 0.00 | 0.15 | 0.15 | 83 | 1012.0 |
| 20260507123911 | 20 | 302 | 9.7 | 14.5 | 0.00 | 0.15 | 0.15 | 83 | 1012.1 |
| 20260507120834 | 19 | 317 | 8.0 | 12.9 | 0.00 | 0.15 | 0.15 | 82 | 1012.6 |
| 20260507120341 | 19 | 306 | 6.4 | 11.3 | 0.00 | 0.15 | 0.15 | 83 | 1012.7 |
| 20260507115829 | 19 | 301 | 4.8 | 9.7 | 0.00 | 0.15 | 0.15 | 83 | 1012.6 |
| 20260507115337 | 19 | 315 | 4.8 | 6.4 | 0.00 | 0.15 | 0.15 | 83 | 1012.6 |
| 20260507114822 | 19 | 315 | 4.8 | 6.4 | 0.00 | 0.15 | 0.15 | 83 | 1012.5 |
| 20260507114315 | 19 | 319 | 4.8 | 6.4 | 0.00 | 0.15 | 0.15 | 82 | 1012.6 |
| 20260507113806 | 18 | 321 | 4.8 | 6.4 | 0.00 | 0.15 | 0.15 | 82 | 1012.6 |
| 20260507112619 | 18 | 320 | 4.8 | 8.0 | 0.00 | 0.15 | 0.15 | 82 | 1012.7 |
| 20260507112105 | 18 | 317 | 6.4 | 11.3 | 0.00 | 0.15 | 0.15 | 83 | 1012.8 |
| 20260507110950 | 18 | 311 | 8.0 | 11.3 | 0.00 | 0.15 | 0.15 | 84 | 1012.9 |
| 20260507110447 | 18 | 319 | 8.0 | 11.3 | 0.00 | 0.15 | 0.15 | 84 | 1013.0 |
| 20260507105933 | 18 | 321 | 8.0 | 11.3 | 0.00 | 0.15 | 0.15 | 84 | 1013.0 |
| 20260507105421 | 18 | 322 | 6.4 | 11.3 | 0.00 | 0.15 | 0.15 | 85 | 1013.1 |
| 20260507104915 | 18 | 317 | 4.8 | 8.0 | 0.00 | 0.15 | 0.15 | 85 | 1013.2 |
| 20260507104404 | 18 | 326 | 6.4 | 8.0 | 0.00 | 0.15 | 0.15 | 85 | 1013.3 |
| 20260507103912 | 18 | 327 | 4.8 | 8.0 | 0.00 | 0.15 | 0.15 | 85 | 1013.2 |
| 20260507102756 | 18 | 327 | 4.8 | 6.4 | 0.00 | 0.15 | 0.15 | 84 | 1013.4 |
| 20260507102256 | 18 | 327 | 3.2 | 6.4 | 0.00 | 0.15 | 0.15 | 84 | 1013.3 |
| 20260507101744 | 18 | 25 | 1.6 | 4.8 | 0.00 | 0.15 | 0.15 | 85 | 1013.4 |
| 20260507101241 | 18 | 25 | 3.2 | 4.8 | 0.00 | 0.15 | 0.15 | 84 | 1013.5 |
| 20260507100743 | 18 | 24 | 3.2 | 4.8 | 0.00 | 0.15 | 0.15 | 84 | 1013.7 |
| 20260507100244 | 19 | 71 | 1.6 | 4.8 | 0.00 | 0.15 | 0.15 | 83 | 1013.8 |
| 20260507095744 | 19 | 71 | 1.6 | 4.8 | 0.00 | 0.15 | 0.15 | 83 | 1013.6 |
| 20260507095243 | 19 | 71 | 3.2 | 4.8 | 0.00 | 0.15 | 0.15 | 84 | 1013.4 |
| 20260507094126 | 19 | 96 | 1.6 | 4.8 | 0.00 | 0.15 | 0.15 | 84 | 1013.5 |
| 20260507093634 | 18 | 96 | 1.6 | 9.7 | 0.00 | 0.15 | 0.15 | 83 | 1013.4 |
| 20260507093123 | 18 | 96 | 1.6 | 9.7 | 0.00 | 0.15 | 0.15 | 83 | 1013.5 |
| 20260507092628 | 18 | 98 | 3.2 | 9.7 | 0.00 | 0.15 | 0.15 | 83 | 1013.4 |
| 20260507092113 | 18 | 98 | 4.8 | 9.7 | 0.00 | 0.15 | 0.15 | 83 | 1013.5 |
| 20260507091608 | 18 | 90 | 3.2 | 8.0 | 0.00 | 0.15 | 0.15 | 82 | 1013.5 |
| 20260507091112 | 19 | 81 | 1.6 | 4.8 | 0.00 | 0.15 | 0.15 | 83 | 1013.5 |
| 20260507090602 | 19 | 61 | 1.6 | 3.2 | 0.00 | 0.15 | 0.15 | 84 | 1013.7 |
| 20260507090043 | 19 | 57 | 1.6 | 3.2 | 0.00 | 0.15 | 0.15 | 84 | 1013.6 |
| 20260507085549 | 19 | 56 | 1.6 | 3.2 | 0.00 | 0.15 | 0.15 | 85 | 1013.3 |
| 20260507083745 | 18 | 313 | 0.0 | 3.2 | 0.00 | 0.15 | 0.15 | 86 | 1013.4 |
| 20260507083242 | 17 | 313 | 0.0 | 3.2 | 0.00 | 0.15 | 0.15 | 87 | 1013.5 |
| 20260507082139 | 17 | 313 | 1.6 | 3.2 | 0.00 | 0.15 | 0.15 | 87 | 1013.4 |
| 20260507081622 | 17 | 313 | 0.0 | 4.8 | 0.00 | 0.15 | 0.15 | 87 | 1013.5 |
| 20260507081112 | 17 | 306 | 1.6 | 4.8 | 0.00 | 0.15 | 0.15 | 88 | 1013.6 |
| 20260507080606 | 17 | 306 | 3.2 | 6.4 | 0.00 | 0.15 | 0.15 | 88 | 1013.7 |
| 20260507080056 | 17 | 306 | 4.8 | 6.4 | 0.00 | 0.15 | 0.15 | 88 | 1013.6 |
| 20260507075559 | 17 | 300 | 4.8 | 6.4 | 0.00 | 0.15 | 0.15 | 89 | 1013.6 |
| 20260507075101 | 17 | 306 | 3.2 | 6.4 | 0.00 | 0.15 | 0.15 | 89 | 1013.8 |
| 20260507074556 | 17 | 294 | 3.2 | 4.8 | 0.00 | 0.15 | 0.15 | 90 | 1013.7 |
| 20260507074039 | 17 | 338 | 3.2 | 4.8 | 0.00 | 0.15 | 0.15 | 90 | 1013.6 |
| 20260507073534 | 17 | 338 | 3.2 | 4.8 | 0.00 | 0.15 | 0.15 | 90 | 1013.5 |
| 20260507073023 | 17 | 338 | 1.6 | 4.8 | 0.00 | 0.15 | 0.15 | 91 | 1013.5 |
| 20260507072507 | 17 | 338 | 0.0 | 3.2 | 0.00 | 0.15 | 0.15 | 91 | 1013.7 |
| 20260507071333 | 17 | 338 | 0.0 | 1.6 | 0.00 | 0.15 | 0.15 | 92 | 1013.6 |
| 20260507070818 | 16 | 338 | 0.0 | 1.6 | 0.00 | 0.15 | 0.15 | 92 | 1013.7 |
| 20260507070324 | 16 | 338 | 0.0 | 0.0 | 0.00 | 0.15 | 0.15 | 92 | 1013.7 |
| 20260507065818 | 16 | 338 | 0.0 | 0.0 | 0.00 | 0.15 | 0.15 | 92 | 1013.7 |
| 20260507065308 | 16 | 338 | 1.6 | 4.8 | 0.00 | 0.15 | 0.15 | 92 | 1013.7 |
| 20260507064756 | 16 | 338 | 3.2 | 6.4 | 0.00 | 0.15 | 0.15 | 92 | 1013.7 |
| 20260507064257 | 16 | 338 | 3.2 | 6.4 | 0.00 | 0.15 | 0.15 | 92 | 1013.6 |
| 20260507063739 | 16 | 338 | 4.8 | 11.3 | 0.00 | 0.15 | 0.15 | 92 | 1013.6 |
| 20260507063221 | 16 | 338 | 6.4 | 11.3 | 0.00 | 0.15 | 0.15 | 92 | 1013.6 |
| 20260507062721 | 16 | 350 | 8.0 | 12.9 | 0.00 | 0.15 | 0.15 | 92 | 1013.5 |
| 20260507061556 | 16 | 5 | 9.7 | 14.5 | 0.00 | 0.15 | 0.15 | 92 | 1013.4 |
| 20260507061036 | 16 | 355 | 9.7 | 14.5 | 0.00 | 0.15 | 0.15 | 92 | 1013.4 |
| 20260507060538 | 16 | 9 | 11.3 | 14.5 | 0.00 | 0.15 | 0.15 | 92 | 1013.4 |
| 20260507060026 | 16 | 22 | 11.3 | 12.9 | 0.00 | 0.15 | 0.15 | 92 | 1013.4 |
| 20260507055532 | 16 | 12 | 11.3 | 12.9 | 0.00 | 0.15 | 0.15 | 92 | 1013.3 |
| 20260507055037 | 17 | 9 | 9.7 | 12.9 | 0.00 | 0.15 | 0.15 | 91 | 1013.4 |
| 20260507054538 | 17 | 5 | 8.0 | 11.3 | 0.00 | 0.15 | 0.15 | 91 | 1013.4 |
| 20260507053422 | 17 | 323 | 11.3 | 16.1 | 0.00 | 0.15 | 0.15 | 92 | 1013.3 |
| 20260507052924 | 17 | 327 | 12.9 | 16.1 | 0.00 | 0.15 | 0.15 | 92 | 1013.3 |
| 20260507052415 | 17 | 328 | 14.5 | 16.1 | 0.00 | 0.15 | 0.15 | 92 | 1013.3 |
| 20260507051914 | 17 | 328 | 12.9 | 16.1 | 0.00 | 0.15 | 0.15 | 93 | 1013.2 |
| 20260507051406 | 16 | 333 | 9.7 | 14.5 | 0.00 | 0.15 | 0.15 | 93 | 1013.1 |
| 20260507050859 | 16 | 342 | 4.8 | 12.9 | 0.00 | 0.15 | 0.15 | 93 | 1013.1 |
| 20260507050345 | 16 | 302 | 1.6 | 4.8 | 0.00 | 0.15 | 0.15 | 93 | 1013.1 |
| 20260507045206 | 16 | 216 | 3.2 | 4.8 | 0.00 | 0.15 | 0.15 | 92 | 1013.0 |
| 20260507044656 | 16 | 213 | 1.6 | 4.8 | 0.00 | 0.15 | 0.15 | 92 | 1013.0 |
| 20260507044151 | 16 | 213 | 1.6 | 4.8 | 0.00 | 0.15 | 0.15 | 92 | 1012.8 |
| 20260507043648 | 16 | 213 | 3.2 | 4.8 | 0.00 | 0.15 | 0.15 | 92 | 1012.7 |
| 20260507043148 | 16 | 213 | 3.2 | 4.8 | 0.00 | 0.15 | 0.15 | 92 | 1012.7 |
| 20260507042641 | 16 | 209 | 1.6 | 4.8 | 0.00 | 0.15 | 0.15 | 92 | 1012.6 |
| 20260507042129 | 16 | 205 | 1.6 | 4.8 | 0.00 | 0.15 | 0.15 | 92 | 1012.6 |
| 20260507041628 | 16 | 205 | 1.6 | 3.2 | 0.00 | 0.15 | 0.15 | 91 | 1012.8 |
| 20260507041130 | 16 | 203 | 1.6 | 3.2 | 0.00 | 0.15 | 0.15 | 91 | 1012.7 |
| 20260507040634 | 16 | 199 | 1.6 | 3.2 | 0.00 | 0.15 | 0.15 | 91 | 1012.8 |
| 20260507035510 | 16 | 173 | 0.0 | 3.2 | 0.00 | 0.15 | 0.15 | 91 | 1012.7 |
| 20260507035003 | 16 | 173 | 1.6 | 4.8 | 0.00 | 0.15 | 0.15 | 91 | 1012.9 |
| 20260507034446 | 16 | 173 | 1.6 | 4.8 | 0.00 | 0.15 | 0.15 | 91 | 1012.8 |
| 20260507033938 | 16 | 173 | 1.6 | 6.4 | 0.00 | 0.15 | 0.15 | 91 | 1012.7 |
| 20260507033437 | 16 | 165 | 1.6 | 6.4 | 0.00 | 0.15 | 0.15 | 91 | 1012.7 |
| 20260507032940 | 16 | 167 | 1.6 | 6.4 | 0.00 | 0.15 | 0.15 | 91 | 1012.8 |
| 20260507031836 | 16 | 165 | 1.6 | 4.8 | 0.00 | 0.15 | 0.15 | 90 | 1013.0 |
| 20260507030706 | 16 | 192 | 0.0 | 16.1 | 0.00 | 0.15 | 0.15 | 90 | 1013.1 |
| 20260507030159 | 16 | 178 | 1.6 | 16.1 | 0.00 | 0.15 | 0.15 | 89 | 1013.0 |
| 20260507025659 | 17 | 152 | 4.8 | 17.7 | 0.00 | 0.15 | 0.15 | 90 | 1013.0 |
| 20260507025143 | 17 | 185 | 6.4 | 17.7 | 0.00 | 0.15 | 0.15 | 90 | 1012.7 |
| 20260507024631 | 17 | 130 | 6.4 | 20.9 | 0.00 | 0.15 | 0.15 | 89 | 1012.7 |
| 20260507022845 | 17 | 136 | 12.9 | 20.9 | 0.00 | 0.15 | 0.15 | 89 | 1012.5 |
| 20260507022351 | 17 | 94 | 12.9 | 20.9 | 0.00 | 0.15 | 0.15 | 89 | 1012.4 |
| 20260507021859 | 17 | 127 | 9.7 | 20.9 | 0.00 | 0.13 | 0.15 | 89 | 1012.5 |
| 20260507021342 | 16 | 135 | 3.2 | 16.1 | 0.00 | 0.13 | 0.13 | 88 | 1012.6 |
| 20260507020205 | 17 | 61 | 6.4 | 14.5 | 0.00 | 0.13 | 0.13 | 88 | 1012.3 |
| 20260507015655 | 16 | 111 | 4.8 | 14.5 | 0.00 | 0.13 | 0.13 | 88 | 1012.6 |
| 20260507015152 | 16 | 130 | 6.4 | 16.1 | 0.00 | 0.13 | 0.13 | 88 | 1012.7 |
| 20260507014658 | 16 | 92 | 4.8 | 16.1 | 0.00 | 0.13 | 0.13 | 88 | 1012.6 |
| 20260507014139 | 16 | 159 | 6.4 | 17.7 | 0.00 | 0.13 | 0.13 | 88 | 1012.7 |
| 20260507013630 | 16 | 108 | 6.4 | 17.7 | 0.00 | 0.13 | 0.13 | 88 | 1012.6 |
| 20260507013137 | 16 | 145 | 8.0 | 17.7 | 0.00 | 0.13 | 0.13 | 88 | 1012.7 |
| 20260507012637 | 16 | 132 | 8.0 | 17.7 | 0.00 | 0.13 | 0.13 | 88 | 1012.9 |
| 20260507010348 | 16 | 158 | 3.2 | 19.3 | 0.00 | 0.10 | 0.10 | 87 | 1013.3 |
| 20260507005849 | 16 | 133 | 8.0 | 19.3 | 0.00 | 0.10 | 0.10 | 87 | 1013.3 |
| 20260507005330 | 16 | 124 | 9.7 | 19.3 | 0.00 | 0.10 | 0.10 | 87 | 1013.4 |
| 20260507004811 | 16 | 115 | 9.7 | 17.7 | 0.00 | 0.10 | 0.10 | 87 | 1013.4 |
| 20260507004304 | 16 | 128 | 8.0 | 17.7 | 0.00 | 0.10 | 0.10 | 87 | 1013.3 |
| 20260507003806 | 16 | 148 | 6.4 | 16.1 | 0.00 | 0.10 | 0.10 | 87 | 1013.3 |
| 20260507003310 | 16 | 133 | 6.4 | 16.1 | 0.00 | 0.10 | 0.10 | 87 | 1013.4 |
| 20260507002815 | 16 | 123 | 4.8 | 12.9 | 0.00 | 0.10 | 0.10 | 87 | 1013.5 |
| 20260507002312 | 16 | 82 | 4.8 | 12.9 | 0.08 | 0.10 | 0.10 | 87 | 1013.5 |
| 20260507001808 | 16 | 130 | 4.8 | 12.9 | 0.13 | 0.10 | 0.10 | 87 | 1013.5 |
| 20260507000630 | 16 | 118 | 4.8 | 12.9 | 0.00 | 0.08 | 0.08 | 86 | 1013.4 |
| 20260507000130 | 16 | 142 | 4.8 | 12.9 | 0.00 | 0.08 | 0.08 | 86 | 1013.5 |
| 20260506235624 | 16 | 118 | 4.8 | 12.9 | 0.00 | 0.08 | 0.08 | 85 | 1013.6 |
| 20260506235107 | 16 | 113 | 4.8 | 12.9 | 0.00 | 0.08 | 0.08 | 85 | 1013.7 |
| 20260506234601 | 16 | 144 | 3.2 | 11.3 | 0.08 | 0.08 | 0.08 | 84 | 1013.8 |
| 20260506234054 | 16 | 92 | 3.2 | 11.3 | 0.13 | 0.08 | 0.08 | 84 | 1013.9 |
| 20260506233537 | 16 | 128 | 3.2 | 9.7 | 0.15 | 0.08 | 0.08 | 84 | 1014.0 |
| 20260506232418 | 17 | 121 | 1.6 | 9.7 | 0.13 | 0.03 | 0.03 | 84 | 1014.1 |
| 20260506231256 | 17 | 140 | 0.0 | 0.0 | 0.00 | 0.00 | 0.00 | 83 | 1014.1 |
| 20260506230131 | 17 | 140 | 6.4 | 14.5 | 0.00 | 0.00 | 0.00 | 83 | 1014.2 |
| 20260506225620 | 17 | 121 | 4.8 | 12.9 | 0.00 | 0.00 | 0.00 | 82 | 1014.1 |
| 20260506225124 | 17 | 127 | 4.8 | 12.9 | 0.00 | 0.00 | 0.00 | 82 | 1014.3 |
| 20260506224633 | 17 | 140 | 4.8 | 12.9 | 0.00 | 0.00 | 0.00 | 82 | 1014.3 |
| 20260506224121 | 17 | 109 | 4.8 | 11.3 | 0.00 | 0.00 | 0.00 | 82 | 1014.4 |
| 20260506223625 | 17 | 136 | 4.8 | 12.9 | 0.00 | 0.00 | 0.00 | 82 | 1014.4 |
| 20260506223125 | 17 | 163 | 6.4 | 12.9 | 0.00 | 0.00 | 0.00 | 81 | 1014.5 |
| 20260506222610 | 17 | 132 | 6.4 | 12.9 | 0.00 | 0.00 | 0.00 | 82 | 1014.6 |
| 20260506222052 | 17 | 135 | 4.8 | 12.9 | 0.00 | 0.00 | 0.00 | 82 | 1014.5 |
| 20260506221546 | 17 | 132 | 3.2 | 8.0 | 0.00 | 0.00 | 0.00 | 82 | 1014.6 |
| 20260506221029 | 17 | 144 | 1.6 | 8.0 | 0.00 | 0.00 | 0.00 | 82 | 1014.5 |
| 20260506215906 | 17 | 140 | 1.6 | 6.4 | 0.00 | 0.00 | 0.00 | 82 | 1014.4 |
| 20260506215356 | 17 | 140 | 1.6 | 4.8 | 0.00 | 0.00 | 0.00 | 82 | 1014.4 |
| 20260506214852 | 17 | 133 | 0.0 | 4.8 | 0.00 | 0.00 | 0.00 | 82 | 1014.4 |
| 20260506214342 | 17 | 136 | 0.0 | 4.8 | 0.00 | 0.00 | 0.00 | 82 | 1014.5 |
| 20260506213851 | 17 | 136 | 1.6 | 4.8 | 0.00 | 0.00 | 0.00 | 82 | 1014.5 |
| 20260506213333 | 17 | 134 | 0.0 | 4.8 | 0.00 | 0.00 | 0.00 | 82 | 1014.4 |
| 20260506212819 | 17 | 134 | 1.6 | 4.8 | 0.00 | 0.00 | 0.00 | 82 | 1014.4 |
| 20260506212323 | 17 | 134 | 3.2 | 4.8 | 0.00 | 0.00 | 0.00 | 82 | 1014.4 |
| 20260506211816 | 17 | 128 | 1.6 | 4.8 | 0.00 | 0.00 | 0.00 | 83 | 1014.4 |
| 20260506211321 | 17 | 151 | 0.0 | 4.8 | 0.00 | 0.00 | 0.00 | 82 | 1014.5 |
| 20260506210828 | 17 | 155 | 0.0 | 4.8 | 0.00 | 0.00 | 0.00 | 82 | 1014.5 |
| 20260506210319 | 17 | 152 | 1.6 | 4.8 | 0.00 | 0.00 | 0.00 | 83 | 1014.6 |
| 20260506205814 | 17 | 148 | 1.6 | 4.8 | 0.00 | 0.00 | 0.00 | 83 | 1014.5 |
| 20260506205305 | 17 | 130 | 0.0 | 4.8 | 0.00 | 0.00 | 0.00 | 83 | 1014.5 |
| 20260506204812 | 17 | 146 | 1.6 | 4.8 | 0.00 | 0.00 | 0.00 | 83 | 1014.6 |
| 20260506204253 | 17 | 144 | 1.6 | 4.8 | 0.00 | 0.00 | 0.00 | 83 | 1014.6 |
| 20260506203750 | 17 | 160 | 1.6 | 4.8 | 0.00 | 0.00 | 0.00 | 83 | 1014.6 |
| 20260506202629 | 17 | 150 | 0.0 | 6.4 | 0.00 | 0.00 | 0.00 | 83 | 1014.7 |
| 20260506202110 | 17 | 149 | 1.6 | 8.0 | 0.00 | 0.00 | 0.00 | 83 | 1014.7 |
| 20260506201555 | 17 | 182 | 1.6 | 8.0 | 0.00 | 0.00 | 0.00 | 83 | 1014.7 |
| 20260506195807 | 17 | 150 | 1.6 | 8.0 | 0.00 | 0.00 | 0.00 | 83 | 1014.7 |
| 20260506195252 | 17 | 157 | 1.6 | 8.0 | 0.00 | 0.00 | 0.00 | 83 | 1014.7 |
| 20260506194758 | 18 | 164 | 3.2 | 8.0 | 0.00 | 0.00 | 0.00 | 83 | 1014.8 |
| 20260506193617 | 18 | 143 | 3.2 | 9.7 | 0.00 | 0.00 | 0.00 | 83 | 1014.8 |
| 20260506192443 | 18 | 136 | 4.8 | 19.3 | 0.00 | 0.00 | 0.00 | 83 | 1014.7 |
| 20260506191928 | 18 | 136 | 8.0 | 19.3 | 0.00 | 0.00 | 0.00 | 82 | 1014.7 |
| 20260506190745 | 18 | 80 | 11.3 | 17.7 | 0.00 | 0.00 | 0.00 | 82 | 1014.5 |
| 20260506190253 | 18 | 92 | 6.4 | 16.1 | 0.00 | 0.00 | 0.00 | 81 | 1014.4 |
| 20260506185736 | 18 | 76 | 1.6 | 9.7 | 0.00 | 0.00 | 0.00 | 81 | 1014.3 |
| 20260506184612 | 18 | 103 | 0.0 | 6.4 | 0.00 | 0.00 | 0.00 | 79 | 1014.3 |
| 20260506184100 | 18 | 109 | 0.0 | 6.4 | 0.00 | 0.00 | 0.00 | 78 | 1014.3 |
| 20260506183607 | 18 | 171 | 1.6 | 11.3 | 0.00 | 0.00 | 0.00 | 77 | 1014.3 |
| 20260506183110 | 18 | 158 | 1.6 | 11.3 | 0.00 | 0.00 | 0.00 | 75 | 1014.3 |
| 20260506182555 | 18 | 202 | 1.6 | 11.3 | 0.00 | 0.00 | 0.00 | 75 | 1014.2 |
| 20260506182051 | 18 | 175 | 3.2 | 11.3 | 0.00 | 0.00 | 0.00 | 74 | 1014.1 |
| 20260506181540 | 18 | 194 | 1.6 | 9.7 | 0.00 | 0.00 | 0.00 | 74 | 1014.1 |
| 20260506181037 | 18 | 139 | 0.0 | 8.0 | 0.00 | 0.00 | 0.00 | 73 | 1014.0 |
| 20260506180542 | 18 | 165 | 1.6 | 9.7 | 0.00 | 0.00 | 0.00 | 73 | 1014.0 |
| 20260506180026 | 18 | 155 | 3.2 | 9.7 | 0.00 | 0.00 | 0.00 | 73 | 1013.9 |
| 20260506175531 | 18 | 154 | 3.2 | 9.7 | 0.00 | 0.00 | 0.00 | 72 | 1013.9 |
| 20260506175036 | 19 | 182 | 3.2 | 9.7 | 0.00 | 0.00 | 0.00 | 72 | 1013.8 |
| 20260506174518 | 19 | 217 | 3.2 | 9.7 | 0.00 | 0.00 | 0.00 | 72 | 1013.7 |
| 20260506174021 | 19 | 158 | 1.6 | 9.7 | 0.00 | 0.00 | 0.00 | 72 | 1013.6 |
| 20260506173529 | 19 | 147 | 1.6 | 6.4 | 0.00 | 0.00 | 0.00 | 72 | 1013.6 |
| 20260506173019 | 19 | 157 | 1.6 | 6.4 | 0.00 | 0.00 | 0.00 | 72 | 1013.6 |
| 20260506172506 | 19 | 166 | 1.6 | 6.4 | 0.00 | 0.00 | 0.00 | 72 | 1013.6 |
| 20260506171328 | 19 | 167 | 0.0 | 4.8 | 0.00 | 0.00 | 0.00 | 72 | 1013.6 |
| 20260506170823 | 19 | 157 | 0.0 | 6.4 | 0.00 | 0.00 | 0.00 | 71 | 1013.5 |
| 20260506165705 | 20 | 179 | 1.6 | 9.7 | 0.00 | 0.00 | 0.00 | 71 | 1013.5 |
| 20260506165201 | 20 | 175 | 1.6 | 9.7 | 0.00 | 0.00 | 0.00 | 71 | 1013.5 |
| 20260506164039 | 20 | 174 | 1.6 | 6.4 | 0.00 | 0.00 | 0.00 | 70 | 1013.7 |
| 20260506163547 | 20 | 236 | 0.0 | 4.8 | 0.00 | 0.00 | 0.00 | 70 | 1013.6 |
| 20260506163043 | 20 | 234 | 1.6 | 4.8 | 0.00 | 0.00 | 0.00 | 70 | 1013.6 |
| 20260506162549 | 20 | 181 | 1.6 | 8.0 | 0.00 | 0.00 | 0.00 | 70 | 1013.4 |
| 20260506162051 | 20 | 214 | 1.6 | 8.0 | 0.00 | 0.00 | 0.00 | 70 | 1013.6 |
| 20260506161531 | 20 | 257 | 0.0 | 6.4 | 0.00 | 0.00 | 0.00 | 70 | 1013.6 |
| 20260506161039 | 20 | 209 | 1.6 | 6.4 | 0.00 | 0.00 | 0.00 | 70 | 1013.6 |
| 20260506160521 | 20 | 169 | 3.2 | 9.7 | 0.00 | 0.00 | 0.00 | 70 | 1013.6 |
| 20260506160003 | 20 | 217 | 1.6 | 9.7 | 0.00 | 0.00 | 0.00 | 71 | 1013.7 |
| 20260506155458 | 20 | 210 | 1.6 | 9.7 | 0.00 | 0.00 | 0.00 | 72 | 1013.7 |
| 20260506155007 | 19 | 227 | 1.6 | 9.7 | 0.00 | 0.00 | 0.00 | 74 | 1013.7 |
| 20260506154450 | 19 | 171 | 1.6 | 8.0 | 0.00 | 0.00 | 0.00 | 76 | 1013.7 |
| 20260506153312 | 19 | 50 | 0.0 | 0.0 | 0.00 | 0.00 | 0.00 | 80 | 1013.8 |
| 20260506152814 | 19 | 50 | 1.6 | 3.2 | 0.00 | 0.00 | 0.00 | 80 | 1013.7 |
| 20260506151700 | 19 | 26 | 0.0 | 4.8 | 0.00 | 0.00 | 0.00 | 78 | 1013.6 |
| 20260506151159 | 19 | 5 | 1.6 | 4.8 | 0.00 | 0.00 | 0.00 | 78 | 1013.7 |
| 20260506150645 | 20 | 296 | 1.6 | 4.8 | 0.00 | 0.00 | 0.00 | 77 | 1013.6 |
| 20260506145513 | 20 | 318 | 3.2 | 9.7 | 0.00 | 0.00 | 0.00 | 74 | 1013.8 |
| 20260506145007 | 21 | 287 | 3.2 | 9.7 | 0.00 | 0.00 | 0.00 | 70 | 1013.8 |
| 20260506144447 | 21 | 157 | 1.6 | 8.0 | 0.00 | 0.00 | 0.00 | 67 | 1013.8 |
| 20260506143327 | 21 | 194 | 1.6 | 11.3 | 0.00 | 0.00 | 0.00 | 66 | 1013.8 |
| 20260506142809 | 21 | 242 | 3.2 | 11.3 | 0.00 | 0.00 | 0.00 | 66 | 1013.8 |